SCP
0 0 1 1 1 1 1 0 0 0 0 0 0 0 0 0 0 0 0 0 0 0 0 0 0 0 0 0 0 0 0 0 0 0 0 0 0 0 0 0 0 0 0
1 1 1 1 1 1 1 1 0 0 0 0 0 0 0 0 0 0 0 0 0 0 0 0 0 0 0 0 0 0 0 0 0 0 0 0 0 0 0 0 0 0 0
1 1 1 1 1 1 1 1 0 0 0 0 0 0 0 0 0 0 0 0 0 0 0 0 0 0 0 0 0 0 0 0 0 0 0 0 0 0 0 0 0 0 0
1 1 1 1 1 1 1 1 0 0 0 0 0 0 0 0 0 0 0 0 0 0 0 0 0 0 0 0 0 0 0 0 0 0 0 0 0 0 0 0 0 0 0
1 1 1 1 1 1 1 0 0 0 0 0 0 0 0 0 0 0 0 0 0 0 0 0 0 0 0 0 0 0 0 0 0 0 0 0 0 0 0 0 0 0 0
1 1 1 1 1 1 1 1 0 0 0 0 0 0 0 0 0 0 0 0 0 0 0 0 0 0 0 0 0 0 0 0 0 0 0 0 0 0 0 0 0 0 0
1 1 1 1 1 1 1 1 1 0 0 0 0 0 0 0 0 0 0 0 0 0 0 0 0 0 0 0 0 0 0 0 0 0 0 0 0 0 0 0 0 0 0
1 1 1 1 1 1 1 1 1 1 0 0 1 1 0 0 0 0 0 0 0 0 0 0 0 0 0 0 0 0 0 0 0 0 0 0 0 0 0 0 0 0 0
1 1 1 1 1 1 1 1 1 1 1 1 1 1 1 1 0 0 1 1 1 0 0 0 0 0 0 0 0 0 0 0 0 0 0 0 0 0 0 0 0 0 0
1 1 1 1 1 1 1 1 1 1 1 1 1 1 1 1 1 1 1 1 1 0 0 0 0 0 0 0 0 0 0 0 0 0 0 0 0 0 0 0 0 0 0
1 1 1 1 1 1 1 1 1 1 1 1 1 1 1 1 1 1 1 1 0 0 0 0 0 0 0 0 0 0 0 0 0 0 0 0 0 0 0 0 0 0 0
1 1 1 1 1 1 1 1 1 2 1 1 1 1 1 1 1 1 1 0 0 0 0 1 1 0 0 0 0 0 0 0 0 0 0 0 0 0 0 0 0 0 0
1 1 1 1 1 1 1 2 2 2 2 2 1 1 1 1 1 1 1 1 0 0 1 1 1 1 1 1 1 0 0 0 0 0 0 0 0 0 0 0 0 0 0
1 1 1 1 1 1 2 2 2 2 2 2 2 1 1 1 1 1 1 1 1 1 1 1 1 1 1 1 1 0 0 0 0 0 0 0 0 0 0 0 0 0 0
1 1 1 1 1 1 2 2 2 2 2 2 2 2 1 1 1 1 1 1 1 1 1 1 1 1 1 1 1 1 0 0 0 0 0 0 0 0 0 0 0 0 0
1 1 1 1 1 1 2 2 2 2 2 2 2 2 1 1 1 1 1 1 1 1 1 1 1 1 1 1 1 1 1 0 0 0 0 0 0 0 0 0 0 0 0
1 1 1 1 1 1 1 1 1 1 1 2 2 1 1 1 1 1 1 1 1 1 1 1 1 1 1 1 0 0 0 0 0 0 0 0 0 0 0 0 0 0 0
1 1 1 1 1 1 1 1 1 1 1 1 1 1 1 1 1 1 1 1 1 1 1 1 1 1 1 0 0 0 0 0 0 0 0 0 0 0 0 0 0 0 0
1 1 1 1 1 1 1 1 1 1 1 1 1 1 1 1 1 1 1 1 1 1 1 1 1 1 1 0 0 0 0 0 0 0 0 0 0 0 0 0 0 0 0
1 1 1 1 1 1 1 1 1 1 1 1 1 1 1 1 1 1 1 1 1 1 1 1 1 1 0 0 0 0 0 0 0 0 0 0 0 0 0 0 0 0 0
1 1 1 1 1 1 1 1 1 1 1 1 1 1 1 1 1 1 1 1 1 1 1 1 1 1 0 0 0 0 0 0 0 0 0 0 0 0 0 0 0 0 0
1 1 1 1 1 1 1 1 1 1 1 1 1 1 1 1 1 1 1 1 1 1 1 1 1 0 0 0 0 0 0 0 0 0 0 0 0 0 0 0 0 0 0
1 1 1 1 1 1 1 1 1 1 1 1 1 1 1 1 1 1 1 1 1 1 1 1 1 0 0 0 0 0 0 0 0 0 0 0 0 0 0 0 0 0 0
1 1 1 1 1 1 1 1 1 1 1 1 1 1 0 0 0 0 1 1 1 1 1 1 0 0 0 0 0 0 0 0 0 0 0 0 0 0 0 0 0 0 0
1 1 1 1 1 1 1 1 1 1 1 1 1 0 0 0 0 0 0 0 0 0 0 0 0 0 0 0 0 0 0 0 0 0 0 0 0 0 0 0 0 0 0
1 1 1 1 1 1 1 1 1 1 1 1 0 0 0 0 0 0 0 0 0 0 0 0 0 0 0 0 0 0 0 0 0 0 0 0 0 0 0 0 0 0 0
Wind_Speed
10 11 12 12 11 10 9 9 8 8 6 4 3 3 3 3 3 3 5 5 5 5 4 3 3 2 2 2 2 1 1 1 0 1 2 3 2 2 2 2 2 3 4
9 11 11 12 13 12 11 10 9 8 7 5 4 3 3 3 3 3 4 5 5 5 5 4 3 3 2 2 2 2 1 1 1 2 1 2 4 3 2 2 2 3 2
15 14 13 13 13 13 13 12 10 9 8 6 3 2 1 1 1 2 2 4 5 5 5 5 4 3 3 3 3 3 3 2 1 2 3 2 2 3 3 2 2 2 1
14 13 14 14 15 15 13 11 11 9 8 7 6 6 5 4 4 3 3 4 4 5 5 5 5 4 3 4 4 3 3 3 2 1 2 3 3 2 2 3 2 2 2
17 17 17 16 15 14 13 11 10 10 9 8 8 7 5 4 3 2 4 4 3 4 5 5 4 4 4 4 4 3 3 3 3 2 2 1 1 2 2 3 3 2 2
15 15 14 12 11 11 11 10 11 10 10 9 8 8 7 6 4 4 4 4 3 3 4 5 5 4 4 4 4 3 3 3 3 3 2 2 2 2 2 3 3 3 3
13 13 14 13 13 13 12 11 11 10 10 10 9 9 8 7 7 6 5 5 3 3 5 5 4 4 4 4 4 3 3 3 3 3 3 3 3 3 3 2 2 2 2
11 13 15 15 14 14 13 12 12 11 10 11 10 8 8 6 5 6 5 6 5 5 5 5 5 5 5 5 4 3 3 3 3 4 3 2 3 3 3 3 3 1 2
10 10 12 13 13 14 14 14 13 11 11 10 9 8 8 7 6 6 5 4 4 4 5 5 5 5 5 5 4 3 4 3 3 3 3 3 2 2 2 3 3 3 2
8 9 9 10 11 12 11 11 12 11 10 10 9 9 8 7 6 5 5 5 5 5 5 5 5 5 4 4 4 3 3 3 3 3 3 3 2 2 2 2 2 3 4
6 7 7 8 8 9 10 11 11 10 10 10 9 8 7 7 6 6 6 5 4 5 5 6 6 5 5 5 4 4 4 5 4 3 3 4 3 2 2 2 2 2 3
5 6 8 7 7 8 8 10 10 10 10 10 8 7 6 6 6 6 6 5 5 4 5 5 5 5 5 5 5 6 5 5 5 4 4 4 3 3 3 2 2 3 3
4 5 6 6 6 6 7 8 9 10 9 9 9 9 7 7 8 7 6 6 5 5 4 4 5 5 5 5 5 5 5 5 5 5 5 5 4 4 3 3 3 2 2
5 5 5 5 5 6 7 7 7 8 8 8 8 8 9 8 8 7 6 6 6 5 5 4 5 5 5 5 5 5 5 5 5 4 4 4 4 5 4 3 3 2 2
5 4 4 5 4 4 4 4 5 6 7 7 7 8 7 6 6 6 6 6 6 6 5 4 5 5 5 5 6 5 5 5 5 4 4 4 5 6 5 3 3 2 2
5 4 3 4 5 5 5 4 3 4 5 7 7 7 6 6 6 6 6 5 5 5 4 4 5 5 5 6 8 7 5 5 5 4 4 4 4 5 5 6 6 5 4
3 2 3 4 4 4 5 5 4 4 5 6 6 6 6 6 7 7 6 6 6 5 4 4 5 5 6 8 7 8 5 5 5 5 4 4 3 3 3 3 3 4 6
3 3 3 3 3 3 3 4 4 4 4 4 5 5 5 6 6 6 7 6 5 5 5 5 5 4 5 7 7 6 5 4 5 5 5 4 3 3 3 2 2 2 3
4 3 3 3 3 3 3 4 4 4 3 4 4 5 5 5 5 6 7 6 5 5 4 4 4 5 5 7 7 6 3 3 4 4 4 4 4 4 4 3 2 3 4
2 2 1 2 2 2 3 5 4 4 3 4 3 3 4 4 4 5 4 3 4 4 4 4 4 5 5 6 7 6 2 2 2 2 2 4 4 4 4 3 3 4 5
2 2 2 1 1 2 3 4 4 3 4 3 2 2 3 4 4 3 3 3 3 3 3 3 3 4 5 5 6 6 3 3 2 2 1 2 4 4 4 4 4 6 5
2 2 2 1 0 1 3 3 2 2 2 2 2 2 2 2 2 2 2 2 3 3 2 2 2 2 3 3 4 5 5 4 3 3 2 2 4 4 5 4 5 6 4
1 1 2 1 1 1 2 2 2 1 2 2 2 2 2 1 2 2 3 3 3 3 3 2 2 2 1 1 3 4 5 4 2 2 3 4 4 4 4 5 5 3 2
1 1 1 1 1 1 2 2 2 2 2 2 1 2 2 1 1 1 2 2 3 3 3 3 3 2 1 2 2 2 2 2 2 1 1 2 3 3 3 3 2 2 2
1 1 2 2 3 2 2 2 2 2 1 1 1 1 2 2 1 1 1 2 3 4 4 4 4 4 4 5 5 4 3 2 2 1 0 1 1 1 1 1 2 2 1
1 1 1 1 2 1 1 2 2 2 2 1 1 1 1 1 2 1 1 3 1 2 3 5 5 3 5 6 5 5 4 3 4 3 1 2 2 2 2 2 2 2 2
Wind_Direction
179 175 173 170 168 168 168 171 171 177 172 170 172 176 194 198 201 203 197 195 194 184 180 191 192 187 187 203 198 187 206 246 175 44 342 325 316 268 244 226 218 225 227
171 174 174 174 175 175 177 176 178 180 181 184 179 178 180 197 200 204 200 200 196 190 189 186 192 193 186 198 198 176 167 242 154 138 76 346 337 323 282 262 232 230 221
181 179 178 181 179 182 186 184 185 185 185 181 166 171 161 196 207 212 209 209 198 195 195 190 189 192 187 199 204 189 182 207 237 169 154 158 245 300 315 296 261 227 208
183 182 181 184 185 188 188 186 184 186 187 180 178 180 187 199 210 206 210 216 203 196 196 194 191 194 196 201 209 195 189 182 220 235 199 187 176 182 304 316 304 277 229
187 187 187 187 186 185 186 187 183 186 187 186 188 190 199 204 208 201 202 210 211 201 196 195 189 193 199 206 209 199 195 189 197 203 204 205 200 186 186 271 304 315 280
190 190 190 183 181 181 183 182 183 187 188 189 192 193 196 197 198 203 201 206 213 217 209 202 194 194 196 204 208 205 201 205 204 202 192 185 191 205 191 226 260 278 282
187 187 186 184 183 183 185 183 184 189 191 192 196 198 199 196 200 201 202 202 207 219 219 207 199 199 203 204 199 199 210 207 207 209 210 207 210 195 184 192 236 261 279
185 188 189 187 186 186 186 185 188 192 193 196 199 199 199 201 206 204 203 206 210 216 213 203 203 204 201 203 192 194 211 210 214 224 220 222 228 206 197 190 188 246 294
183 184 186 186 184 186 187 187 188 191 195 196 195 197 199 201 205 204 201 205 209 210 204 202 201 205 203 199 190 203 214 214 220 229 229 230 238 226 218 203 186 184 236
175 176 180 184 186 187 186 182 186 192 193 194 197 199 200 202 200 196 199 202 205 208 200 205 204 205 204 201 195 206 214 215 229 226 229 236 239 242 228 216 209 191 194
163 169 172 181 182 180 179 182 186 187 191 195 198 201 202 202 200 202 206 204 204 202 204 207 203 202 205 205 207 218 214 217 229 232 230 238 237 243 244 228 217 208 189
144 161 164 168 174 176 180 184 186 188 193 192 190 196 201 197 198 206 206 201 201 202 203 201 201 206 207 205 209 223 223 219 226 230 229 241 240 240 244 233 231 225 209
127 142 151 157 167 171 175 182 186 190 190 188 190 193 198 201 206 208 203 199 198 199 200 197 202 210 214 214 217 217 220 221 224 224 224 232 228 243 243 237 239 243 239
132 135 145 160 167 175 178 179 186 184 181 184 190 196 201 205 210 208 201 202 200 198 203 205 210 214 217 218 218 212 213 221 225 223 223 229 224 230 232 238 238 238 240
116 131 146 151 151 157 168 169 175 176 179 183 192 202 201 199 202 207 202 201 201 204 203 207 216 218 218 219 212 213 217 223 230 235 236 236 234 236 229 228 220 212 219
125 122 134 145 154 159 162 163 176 181 174 183 199 204 197 193 197 203 198 198 203 206 203 213 217 221 227 225 217 213 216 220 222 234 246 247 247 246 235 230 223 211 212
117 150 163 159 163 168 170 170 179 181 178 186 193 198 200 199 200 204 198 202 204 199 201 215 219 222 229 226 223 219 213 216 221 225 233 247 249 238 233 240 246 246 239
150 192 177 161 163 164 168 165 147 162 182 191 197 200 200 206 202 198 202 207 203 204 208 212 219 221 231 224 220 219 216 220 228 226 219 226 234 235 210 218 240 260 259
166 180 182 163 152 153 161 145 147 152 168 202 202 198 195 199 202 203 208 204 199 203 211 213 214 221 237 227 216 206 203 225 244 245 228 211 213 222 199 190 226 269 282
141 131 120 112 132 172 155 142 151 160 192 220 209 197 182 184 200 202 203 201 202 208 211 222 221 219 230 229 214 201 197 220 243 261 237 216 210 214 197 192 210 245 266
135 117 102 112 167 182 148 154 158 177 198 207 199 196 179 180 193 190 192 194 199 206 218 227 231 221 222 221 213 200 191 199 208 223 242 235 213 217 218 212 220 236 250
126 137 129 143 219 142 142 161 183 197 179 175 169 164 162 180 184 183 204 201 192 202 220 224 249 246 227 218 206 192 187 184 191 216 224 235 229 231 236 232 238 247 251
168 162 156 171 242 216 150 164 233 208 171 166 168 159 156 174 184 193 201 203 191 190 204 207 222 243 251 236 207 188 184 189 196 218 224 234 244 242 243 242 247 246 230
209 179 119 177 220 215 176 194 217 198 167 172 185 181 170 198 230 219 208 201 198 194 200 203 214 222 227 217 200 174 177 187 197 229 252 254 255 248 247 256 256 233 221
231 224 189 210 226 210 199 209 187 148 157 189 204 202 196 190 220 258 258 220 219 203 193 203 200 198 213 219 205 194 201 203 199 166 49 333 313 299 289 275 256 247 239
222 210 217 248 242 218 213 218 185 158 154 182 236 217 209 210 193 192 323 345 296 256 219 211 199 204 202 196 203 209 214 211 183 153 179 223 234 236 241 244 250 246 239